Location: *
(28.3744°N, 81.5492°W)
Time: 04:01:49
(UTC+00:00)

Cosmos 2360 Rocket - Pass Details

Date: 15 June 2025
Orbit: 834 x 843 km, 71.0° (Epoch: 11 July)

Event Time Altitude Azimuth Distance (km) Brightness Sun altitude
Rises 00:49:01 0° 338° (NNW) 3,386 6.3 -5.5°
Reaches altitude 10° 00:51:27 10° 336° (NNW) 2,450 5.6 -6.0°
Maximum altitude 00:57:03 72° 253° (WSW) 878 2.5 -7.0°
Drops below altitude 10° 01:02:38 10° 169° (S) 2,445 4.2 -8.1°
Sets 01:05:05 0° 168° (SSE) 3,378 4.9 -8.5°
